Location: Marcé
(47.5801°N, 0.3280°W)
Time: 07:15:54
(UTC+01:00)

Altair - Pass Details

Date: 18 December 2021
Orbit: 1501 x 1683 km, 47.2° (Epoch: 21 January)

Event Time Altitude Azimuth Distance (km) Brightness Sun altitude
Rises 12:28:15 0° 223° (SW) 4,888 10.7 18.7°
Reaches altitude 10° 12:31:32 10° 219° (SW) 3,884 10.4 18.8°
Maximum altitude 12:40:58 52° 147° (SSE) 1,932 9.0 18.9°
Drops below altitude 10° 12:50:05 10° 75° (ENE) 3,758 9.5 19.0°
Sets 12:53:12 0° 71° (ENE) 4,720 9.9 19.0°
